TimeCST,TemperatureF,Dew PointF,Humidity,Sea Level PressureIn,VisibilityMPH,Wind Direction,Wind SpeedMPH,Gust SpeedMPH,PrecipitationIn,Events,Conditions,WindDirDegrees,DateUTC
12:53 AM,50.0,48.0,93,29.82,6.0,SE,5.8,-,N/A,,Clear,140,2012-12-03 06:53:00
1:53 AM,57.0,53.1,87,29.78,7.0,SSE,11.5,-,N/A,,Clear,160,2012-12-03 07:53:00
2:53 AM,59.0,55.0,87,29.75,10.0,South,13.8,-,N/A,,Clear,170,2012-12-03 08:53:00
3:53 AM,61.0,55.9,83,29.71,10.0,South,15.0,24.2,N/A,,Clear,180,2012-12-03 09:53:00
4:53 AM,63.0,57.0,81,29.69,10.0,South,17.3,-,N/A,,Clear,180,2012-12-03 10:53:00
5:53 AM,62.1,57.0,84,29.68,10.0,South,17.3,-,N/A,,Clear,180,2012-12-03 11:53:00
6:53 AM,63.0,55.9,78,29.69,10.0,South,15.0,-,N/A,,Clear,180,2012-12-03 12:53:00
7:53 AM,63.0,55.9,78,29.71,10.0,South,13.8,-,N/A,,Mostly Cloudy,180,2012-12-03 13:53:00
8:45 AM,64.4,57.2,77,29.70,10.0,South,19.6,28.8,N/A,,Overcast,190,2012-12-03 14:45:00
9:53 AM,66.9,57.0,70,29.70,10.0,SSW,23.0,34.5,N/A,,Overcast,200,2012-12-03 15:53:00
10:20 AM,69.8,55.4,60,29.70,10.0,SSW,31.1,38.0,N/A,,Mostly Cloudy,210,2012-12-03 16:20:00
10:53 AM,70.0,55.0,59,29.71,10.0,SSW,25.3,35.7,N/A,,Mostly Cloudy,210,2012-12-03 16:53:00
11:53 AM,70.0,54.0,57,29.72,10.0,WSW,24.2,35.7,N/A,,Overcast,240,2012-12-03 17:53:00
12:53 PM,70.0,50.0,49,29.73,10.0,WSW,19.6,25.3,N/A,,Scattered Clouds,240,2012-12-03 18:53:00
1:53 PM,71.1,48.9,45,29.74,10.0,WSW,20.7,26.5,N/A,,Clear,250,2012-12-03 19:53:00
2:53 PM,63.0,42.1,46,29.79,10.0,NW,23.0,27.6,N/A,,Clear,320,2012-12-03 20:53:00
3:53 PM,59.0,39.9,49,29.84,10.0,NNW,19.6,24.2,N/A,,Clear,330,2012-12-03 21:53:00
4:53 PM,57.0,41.0,55,29.88,10.0,North,12.7,-,N/A,,Clear,350,2012-12-03 22:53:00
5:53 PM,57.0,39.9,53,29.91,10.0,North,13.8,-,N/A,,Clear,350,2012-12-03 23:53:00
6:53 PM,55.9,37.9,51,29.95,10.0,North,15.0,-,N/A,,Clear,350,2012-12-04 00:53:00
7:53 PM,54.0,34.0,47,29.99,10.0,North,13.8,-,N/A,,Clear,350,2012-12-04 01:53:00
8:53 PM,51.1,32.0,48,30.01,10.0,North,9.2,-,N/A,,Clear,360,2012-12-04 02:53:00
9:53 PM,43.0,30.9,62,30.03,10.0,North,6.9,-,N/A,,Clear,10,2012-12-04 03:53:00
10:53 PM,43.0,32.0,65,30.04,10.0,North,8.1,-,N/A,,Clear,10,2012-12-04 04:53:00